Location: Dayton
(39.7590°N, 84.1920°W)
Time: 19:45:34
(UTC-05:00)

ATLAS CENTAUR R/B - Visible Passes

Search period start: 16 January 2017 00:00
Search period end: 26 January 2017 00:00
Orbit: 213 x 8008 km, 57.3° (Epoch: 25 November)

Date Brightness Start Highest point End Pass type
(mag) Time Alt. Az. Time Alt. Az. Time Alt. Az.
16 Jan 4.6 07:12:14 10° N 07:15:33 16° NNE 07:21:13 10° ENE visible
17 Jan 4.6 06:43:48 10° N 06:46:10 13° NNE 06:49:36 10° NE visible
18 Jan 4.6 06:15:51 10° NNE 06:16:29 10° NNE 06:17:12 10° NNE visible
22 Jan 4.6 07:15:38 10° NNW 07:20:16 27° NE 07:31:02 10° E visible
23 Jan 4.6 06:45:28 10° NNW 06:49:28 21° NE 06:57:31 10° E visible
24 Jan 4.7 06:15:08 10° N 06:18:20 16° NE 06:23:48 10° ENE visible
25 Jan 4.8 05:44:48 10° N 05:46:53 12° NNE 05:49:44 10° NE visible
